Regional Weather Roundup
Issued by NWS

Home | Current Version | Previous Version | Graphics & Text | Print | Product List | Glossary On
Versions: 1 2 3 4 5 6 7 8 9 10 11 12 13 14 15 16 17 18 19 20 21 22 23 24 25 26 27 28 29 30 31 32 33 34 35 36 37 38 39 40 41 42 43 44 45 46 47 48 49 50
729
ASUS45 KTFX 212110
RWRMT
MONTANA REGIONAL WEATHER ROUNDUP
NATIONAL WEATHER SERVICE GREAT FALLS MT
300 PM MDT THU SEP 21 2017

NOTE: "FAIR" INDICATES FEW OR NO CLOUDS BELOW 12000 FEET WITH NO
SIGNIFICANT WEATHER AND/OR OBSTRUCTIONS TO VISIBILITY.

MTZ001>007-043-212200-
WEST OF THE DIVIDE

CITY           SKY/WX    TMP DP  RH WIND       PRES   REMARKS
KALISPELL      PTSUNNY   52  32  46 E6        29.85S
MISSOULA       CLOUDY    51  34  52 W9        29.86S
BUTTE          CLOUDY    43  28  55 SE5       29.86R
MULLAN PASS    CLOUDY    33  31  92 CALM      29.86S
ANACONDA         N/A     45  25  45 N5        29.84S
DEER LODGE       N/A     46  25  42 NW6       29.87R
EUREKA           N/A     46  41  81 CALM      29.88S
HAMILTON         N/A     52  30  43 NW5       29.84S
LIBBY            N/A     50  36  57 SW5       29.86R
PLAINS           N/A     56  33  41 CALM      29.89R
THOMPSON FALLS   N/A     53  38  56 W1        29.93R
$$

MTZ008-052>055-212200-
SOUTHWEST MONTANA

CITY           SKY/WX    TMP DP  RH WIND       PRES   REMARKS
BOZEMAN        CLOUDY    46  34  62 VRB3      29.86R
DILLON         CLOUDY    39  33  79 E5        29.85S
W YELLOWSTONE  LGT RAIN  39  36  87 W10G24    29.83R
ENNIS          MIX PCPN  41  34  75 N14       29.89R
THREE FORKS      N/A     48  29  48 CALM      29.88R
TWIN BRIDGES     N/A     42  29  60 CALM      29.87S
$$

MTZ009-010-012-014-046-048-049-054-212200-
EAST SLOPES AND CENTRAL MONTANA

CITY           SKY/WX    TMP DP  RH WIND       PRES   REMARKS
CUT BANK       CLOUDY    48  30  49 N9        29.85R
GREAT FALLS    CLOUDY    53  26  35 NE5       29.84S
MALMSTROM AFB  CLOUDY    53  28  38 N5        29.85R
HELENA         CLOUDY    53  29  39 E6        29.83S
BOWMANS CRNR   PTSUNNY   49  25  39 SE6       29.82R
CHOTEAU          N/A     52  28  40 VRB5      29.86R
FAIRFIELD      PTSUNNY   51  26  37 SE7       29.83R
POWER            N/A     50  27  41 CALM      29.84S
RAYNESFORD       N/A     50  26  38 NE3       29.85R
ULM            PTSUNNY   53  26  36 NE7       29.84R
$$

MTZ011-013-016-021-045-047-050-051-212200-
NORTH CENTRAL MONTANA

CITY           SKY/WX    TMP DP  RH WIND       PRES   REMARKS
HAVRE          PTSUNNY   57  31  37 W9        29.85R
LEWISTOWN      CLOUDY    50  28  42 VRB3      29.86R
N BAR RANCH    CLOUDY    50  27  40 N8        29.87S
CHINOOK          N/A     57  30  35 W13       29.84R
DENTON           N/A     51  30  45 NE3       29.83R
GEYSER           N/A     51  29  44 E6        29.84S
GRASS RANGE    PTSUNNY   52  29  41 NE7       29.82R
JUDITH GAP     PTSUNNY   48  26  41 N8        29.84S
WINIFRED         N/A     51  30  46 NW5       29.85R
$$

MTZ017>020-022>027-061-062-212200-
NORTHEAST MONTANA

CITY           SKY/WX    TMP DP  RH WIND       PRES   REMARKS
GLASGOW        CLOUDY    59  31  34 W9        29.81R
JORDAN           N/A     58  32  37 NW8       29.82R
SIDNEY         CLOUDY    60  36  40 N12       29.79R
WOLF POINT     CLOUDY    61  33  35 W10       29.80R
MALTA          SUNNY     59  32  36 W13       29.82S
POPLAR           N/A     61  32  33 CALM      29.79R
SCOBEY           N/A     60  31  33 NW6       29.79R
$$

MTZ028>42-056>058-212200-
SOUTHCENTRAL AND SOUTHEAST MONTANA

CITY           SKY/WX    TMP DP  RH WIND       PRES   REMARKS
BAKER          SUNNY     65  35  33 NW14      29.78S
BILLINGS       LGT RAIN  49  40  71 SE8       29.85R
LIVINGSTON     CLOUDY    47  33  58 SE6       29.84S
MILES CITY     CLOUDY    55  35  47 NW10      29.83R
BIG TIMBER     CLOUDY    46  34  61 NW5       29.88R
EKALAKA          N/A     61  35  37 NW6       29.79R
HARLOWTON      PTSUNNY   50  26  38 MISG      29.84R
LAUREL           N/A     50  41  71 E8        29.85S
$$

REGIONAL REPORTS...DAKOTAS

CITY           SKY/WX    TMP DP  RH WIND       PRES   REMARKS
WILLISTON      CLOUDY    60  39  45 N7        29.77R
MINOT          MOSUNNY   73  44  35 NW6       29.69R
DICKINSON      SUNNY     70  44  39 N12       29.72R
BEACH            N/A     63  32  31 NW14G20   29.80S
CROSBY         PTSUNNY   59  34  38 NW10      29.77R
TIOGA            N/A     61  41  48 N13       29.77S
WATFORD CITY     N/A     63  43  48 NW12      29.76R
BISMARCK       SUNNY     82  54  37 W16       29.64R
GRAND FORKS    MOSUNNY   81  47  30 S18       29.68F
FARGO          PTSUNNY   81  47  30 SE18G24   29.68F
BUFFALO SD       N/A     72  39  30 N13G20    29.67R
RAPID CITY     SUNNY     77  39  25 N15G25    29.69S
$$

REGIONAL REPORTS...WYOMING/IDAHO/WASHINGTON

CITY           SKY/WX    TMP DP  RH WIND       PRES   REMARKS
GILLETTE       SUNNY     64  40  41 N14       29.77R
SHERIDAN       CLOUDY    53  41  63 NW15      29.82R
BUFFALO WY     CLOUDY    56  40  55 N14       29.82S
CODY           LGT RAIN  43  39  86 N12       29.83S
IDAHO FALLS    CLOUDY    42  38  85 SE5       29.83F
SALMON         CLOUDY    50  29  44 NW5       29.83S
BOISE          MOSUNNY   56  35  45 NW10      29.81F
SPOKANE        PTSUNNY   48  42  80 CALM      29.89S
$$

REGIONAL REPORTS...ALBERTA

CITY           SKY/WX    TMP DP  RH WIND       PRES   REMARKS
EDMONTON       PTSUNNY   39  37  93 N12G17    29.90  WCI  32
CALGARY        LGT RAIN  37  34  87 N15G21    29.90R FOG     WCI  28
LETHBRIDGE     PTSUNNY   48  30  49 NW20      29.88R
MEDICINE HAT   PTSUNNY   52  32  46 W18       29.84R
$$

REGIONAL REPORTS...SASKATCHEWAN

CITY           SKY/WX    TMP DP  RH WIND       PRES   REMARKS
SWIFT CURRENT  PTSUNNY   50  30  46 W20G28    29.79R
REGINA         MOSUNNY   55  37  50 W16G24    29.77R
SASKATOON      CLOUDY    50  39  66 SW15G23   29.76R
$$




USA.gov is the U.S. government's official web portal to all federal, state and local government web resources and services.